[[{"header":{"parameterUnit":"m.s-1","parameterCategory":1,"la1":30.2991,"la2":30.254,"lo1":-89.0895,"lo2":-89.0444,"dy":0.0017,"dx":0.0017,"nx":28,"ny":28,"refTime":"2025-04-04T03:00:00:Z","depth":0,"parameterNumber":2,"parameterNumberName":"U-component_of_WINDS"},"data":[0,0,0,0,0,0,0,0,0,0,0,0,0,0,0,0,0,0,0,0,0,0,0,0,0,0,0,0,0,0,0,0,0,0,0,0,0,0,0,0,0,0,0,0,0,0,0,0,0,0,0,0,0,0,0,0,0,0,-5.4606,-5.4607,0,-5.4671,-5.4672,-5.4672,-5.464,-5.4638,-5.4637,-5.4635,-5.47,-5.4704,-5.4707,0,0,0,0,0,0,0,0,0,0,0,0,0,-5.4454,-5.4457,-5.4606,-5.4607,-5.4608,-5.4671,-5.4672,-5.4673,-5.464,-5.4638,-5.4636,-5.4634,-5.4699,-5.4703,-5.4707,0,0,0,0,0,0,0,0,0,0,0,0,0,-5.452,-5.4458,-5.4606,-5.4599,-5.4599,-5.4671,-5.4672,-5.4673,-5.4641,-5.4638,-5.4636,-5.4633,-5.4698,-5.4703,-5.4708,-5.4789,0,0,-5.4723,-5.4725,0,0,0,0,0,0,0,0,-5.4516,-5.4525,-5.46,-5.46,-5.46,-5.4645,-5.4642,-5.4712,-5.4642,-5.4625,-5.4635,-5.4632,-5.4684,-5.469,-5.4707,-5.4792,-5.4795,-5.4723,-5.4726,-5.4728,-5.473,0,0,0,0,0,0,0,-5.4512,-5.4522,-5.4632,-5.4601,-5.4601,-5.4593,-5.46,-5.4655,-5.4668,-5.4626,-5.4624,-5.4632,-5.4684,-5.4703,-5.4709,-5.4796,-5.4723,-5.4727,-5.4731,-5.4732,-5.495,-5.4952,0,0,0,0,0,0,-5.4508,-5.4519,-5.463,-5.4634,-5.4551,-5.4598,-5.4605,-5.4633,-5.4667,-5.467,-5.4634,-5.4631,-5.4696,-5.4703,-5.4711,-5.4807,-5.4728,-5.4733,-5.4736,-5.4947,-5.495,-5.4953,0,0,0,0,0,0,-5.4504,-5.4518,-5.4627,-5.4576,-5.4589,-5.4603,-5.4635,-5.4636,-5.4655,-5.4673,-5.4675,-5.4652,-5.4694,-5.4704,-5.477,-5.4809,-5.4735,-5.474,-5.4944,-5.4948,-5.4952,-5.5,0,0,0,0,0,0,-5.45,-5.4517,-5.4548,-5.4577,-5.4592,-5.4685,-5.4637,-5.4639,-5.4664,-5.4659,-5.469,-5.4693,-5.4693,-5.4762,-5.4775,-5.4814,-5.4744,-5.494,-5.4946,-5.4951,-5.4995,-5.5006,-5.5015,0,0,0,0,0,-5.4495,-5.4559,-5.4549,-5.4563,-5.4631,-5.4687,-5.4696,-5.4695,-5.4667,-5.4698,-5.471,-5.4692,-5.4804,-5.4769,-5.4783,-5.4825,-5.4938,-5.4944,-5.495,-5.4991,-5.5004,-5.5015,0,0,0,0,0,0,-5.4533,-5.4562,-5.4552,-5.4627,-5.4655,-5.4682,-5.472,-5.4708,-5.4744,-5.4738,-5.4736,-5.4743,-5.4811,-5.4825,-5.4787,-5.4905,-5.4866,-5.4875,-5.4893,-5.4905,-5.4914,-5.4908,-5.4748,0,0,0,0,0,-5.455,-5.4594,-5.4617,-5.4681,-5.4696,-5.4706,-5.473,-5.4728,-5.4756,-5.4767,-5.4784,-5.4812,-5.4853,-5.4881,-5.492,-5.4999,-5.5004,-5.5034,-5.5044,-5.5052,-5.5059,-5.5101,-5.5114,-5.4974,-5.4974,-5.4974,0,0,-5.4586,-5.4607,-5.4635,-5.4689,-5.471,-5.4755,-5.4716,-5.4765,-5.4797,-5.4775,-5.4837,-5.4851,-5.4882,-5.4955,-5.4987,-5.4968,-5.5099,-5.506,-5.5066,-5.5069,-5.5108,-5.5122,-5.5133,-5.4978,-5.4978,-5.4977,0,0,-5.4672,-5.4694,-5.4749,-5.4772,-5.4805,-5.4811,-5.4825,-5.4854,-5.4862,-5.4925,-5.4909,-5.4949,-5.502,-5.5043,-5.5064,-5.5162,-5.5146,-5.5176,-5.5225,-5.5265,-5.5276,-5.5286,-5.5319,-5.5331,-5.5183,-5.5183,-5.5183,0,-5.4712,-5.4779,-5.4779,-5.4829,-5.4853,-5.4836,-5.4892,-5.4914,-5.4958,-5.4974,-5.4953,-5.5043,-5.5063,-5.514,-5.5164,-5.5183,-5.5197,-5.517,-5.5275,-5.5285,-5.5294,-5.5325,-5.5338,-5.5186,-5.5186,-5.5186,-5.5185,0,-5.4825,-5.4872,-5.4913,-5.4956,-5.4985,-5.5038,-5.5046,-5.5076,-5.5071,-5.508,-5.5145,-5.5169,-5.5212,-5.5232,-5.5227,-5.5308,-5.5295,-5.5275,-5.5235,-5.531,-5.5339,-5.5352,-5.5191,-5.519,-5.5189,-5.5188,0,0,-5.4934,-5.4978,-5.4993,-5.5012,-5.5049,-5.5084,-5.5137,-5.518,-5.5205,-5.5237,-5.528,-5.5342,-5.5324,-5.5348,-5.5347,-5.5383,-5.5458,-5.5358,-5.5359,-5.5374,-5.5546,-5.5559,-5.5573,-5.5449,-5.5451,-5.5453,-5.5543,0,-5.5021,-5.5113,-5.5115,-5.5199,-5.5241,-5.5227,-5.5273,-5.53,-5.5311,-5.5349,-5.5361,-5.5404,-5.5378,-5.5392,-5.5428,-5.5441,-5.5492,-5.5435,-5.5487,-5.5489,-5.5476,-5.5589,-5.5602,-5.5686,-5.5555,-5.5557,-5.5558,0,-5.5135,-5.517,-5.5258,-5.5289,-5.5307,-5.5348,-5.5387,-5.5424,-5.5455,-5.5461,-5.5489,-5.5483,-5.5536,-5.5498,-5.5571,-5.5532,-5.5555,-5.5565,-5.5568,-5.557,-5.5526,-5.5591,-5.5712,-5.5724,-5.5577,-5.5575,-5.5574,0,-5.5202,-5.5273,-5.5334,-5.5352,-5.5389,-5.5418,-5.5435,-5.5464,-5.549,-5.5526,-5.5542,-5.5584,-5.5606,-5.5638,-5.5643,-5.5615,-5.5716,-5.5678,-5.5721,-5.5721,-5.5739,-5.5738,-5.5863,-5.576,-5.5759,-5.5759,-5.5759,0,-5.5298,-5.5351,-5.5365,-5.5402,-5.5462,-5.5466,-5.5525,-5.554,-5.5566,-5.5606,-5.5598,-5.5635,-5.5641,-5.5681,-5.5686,-5.5745,-5.5755,-5.576,-5.576,-5.5759,-5.5758,-5.5771,-5.5764,-5.5762,-5.5762,-5.5761,-5.576,0,-5.5382,-5.5393,-5.5459,-5.549,-5.5499,-5.5542,-5.5568,-5.5604,-5.5615,-5.5666,-5.5678,-5.5695,-5.5741,-5.5751,-5.5805,-5.5808,-5.5878,-5.5874,-5.5867,-5.5865,-5.5906,-5.5901,-5.6041,-5.6059,-5.5947,-5.5948,-5.5949,0,-5.544,-5.5481,-5.5517,-5.5543,-5.5562,-5.5604,-5.5631,-5.5637,-5.5665,-5.5705,-5.5735,-5.5781,-5.5817,-5.5891,-5.5908,-5.595,-5.5945,-5.5991,-5.595,-5.5948,-5.5942,-5.5938,-5.5942,-5.5997,-5.5999,-5.6,-5.6,0,-5.5542,-5.5546,-5.5585,-5.5626,-5.5658,-5.5691,-5.5722,-5.5745,-5.5755,-5.5787,-5.5834,-5.5862,-5.5918,-5.5963,-5.6005,-5.6022,-5.6013,-5.6014,-5.6025,-5.6023,-5.6016,-5.6018,-5.5885,-5.601,-5.6009,-5.6008,-5.6007,-5.6007,-5.5613,-5.5648,-5.5679,-5.5723,-5.5747,-5.5777,-5.5812,-5.5828,-5.5867,-5.5913,-5.5915,-5.5966,-5.5997,-5.6053,-5.6073,-5.6113,-5.6098,-5.6116,-5.6119,-5.6123,-5.6125,-5.6013,-5.6121,-5.6121,-5.6121,-5.6121,-5.612,0,-5.5712,-5.5731,-5.5772,-5.5816,-5.5851,-5.5841,-5.5875,-5.5904,-5.5949,-5.5979,-5.6015,-5.607,-5.6113,-5.6135,-5.6178,-5.6206,-5.6203,-5.6217,-5.6213,-5.6217,-5.6137,-5.6121,-5.6219,-5.6219,-5.6219,-5.6218,-5.6218,-5.6218,-5.5767,-5.5826,-5.5834,-5.5906,-5.5925,-5.5975,-5.5995,-5.6023,-5.6046,-5.6107,-5.6143,-5.6158,-5.6184,-5.623,-5.6269,-5.6275,-5.629,-5.6306,-5.6309,-5.6233,-5.6223,-5.6213,-5.6198,-5.631,-5.631,-5.6385,-5.6385,-5.6386]},{"header":{"parameterUnit":"m.s-1","parameterCategory":1,"la1":30.2991,"la2":30.254,"lo1":-89.0895,"lo2":-89.0444,"dy":0.0017,"dx":0.0017,"nx":28,"ny":28,"refTime":"2025-04-04T03:00:00:Z","depth":0,"parameterNumber":3,"parameterNumberName":"V-component_of_WINDS"},"data":[0,0,0,0,0,0,0,0,0,0,0,0,0,0,0,0,0,0,0,0,0,0,0,0,0,0,0,0,0,0,0,0,0,0,0,0,0,0,0,0,0,0,0,0,0,0,0,0,0,0,0,0,0,0,0,0,0,0,3.2293,3.2294,0,3.2384,3.2385,3.2386,3.2424,3.2424,3.2424,3.2424,3.2514,3.2517,3.2519,0,0,0,0,0,0,0,0,0,0,0,0,0,3.2153,3.2155,3.2293,3.2294,3.2295,3.2384,3.2385,3.2386,3.2424,3.2424,3.2424,3.2423,3.2513,3.2516,3.252,0,0,0,0,0,0,0,0,0,0,0,0,0,3.2226,3.2156,3.2293,3.2325,3.2329,3.2384,3.2385,3.2387,3.2424,3.2424,3.2424,3.2423,3.2512,3.2516,3.252,3.2549,0,0,3.2532,3.2533,0,0,0,0,0,0,0,0,3.2221,3.2231,3.2319,3.2323,3.2327,3.2392,3.2369,3.2441,3.2424,3.2388,3.2424,3.2423,3.2474,3.2481,3.2498,3.2553,3.2557,3.2532,3.2534,3.2536,3.2537,0,0,0,0,0,0,0,3.2216,3.2227,3.2329,3.232,3.2325,3.2335,3.2345,3.2383,3.2431,3.2391,3.2394,3.2404,3.2476,3.2495,3.2501,3.2558,3.2532,3.2535,3.2538,3.2539,3.2645,3.2645,0,0,0,0,0,0,3.2206,3.2223,3.2326,3.2332,3.2273,3.2338,3.2349,3.2372,3.2431,3.244,3.2404,3.2406,3.2488,3.2496,3.2504,3.2544,3.2536,3.254,3.2542,3.2644,3.2645,3.2645,0,0,0,0,0,0,3.2203,3.2215,3.2322,3.2278,3.2292,3.234,3.2366,3.2374,3.2392,3.2441,3.245,3.2415,3.2488,3.2499,3.2538,3.2548,3.2541,3.2545,3.2644,3.2645,3.2645,3.2623,0,0,0,0,0,0,3.2199,3.2214,3.2225,3.2278,3.2295,3.2355,3.2366,3.2376,3.2399,3.2402,3.2453,3.2461,3.2489,3.2532,3.2542,3.2553,3.2548,3.2643,3.2644,3.2645,3.2623,3.2623,3.2623,0,0,0,0,0,3.2194,3.2214,3.2225,3.2237,3.231,3.2355,3.2365,3.2397,3.24,3.2412,3.2444,3.2459,3.2545,3.2536,3.2548,3.2559,3.2643,3.2644,3.2645,3.2623,3.2623,3.2623,0,0,0,0,0,0,3.2159,3.2221,3.2234,3.2272,3.2309,3.2362,3.2378,3.2395,3.2431,3.2432,3.247,3.2481,3.2518,3.2543,3.2532,3.2592,3.2595,3.2599,3.2575,3.2575,3.2575,3.2568,3.2551,0,0,0,0,0,3.2156,3.2188,3.224,3.2269,3.2287,3.2329,3.235,3.2372,3.2411,3.2426,3.2461,3.2497,3.2533,3.2555,3.259,3.2627,3.264,3.2641,3.2641,3.264,3.2643,3.2667,3.2669,3.2649,3.2649,3.2649,0,0,3.2149,3.2187,3.2205,3.2263,3.2294,3.2327,3.2342,3.2375,3.24,3.2431,3.2471,3.2498,3.2541,3.2581,3.2599,3.2602,3.2651,3.2642,3.2641,3.2644,3.2668,3.267,3.2671,3.265,3.265,3.265,0,0,3.2155,3.2186,3.2215,3.2246,3.2293,3.2321,3.2328,3.238,3.2399,3.2441,3.2465,3.2496,3.2555,3.2586,3.2609,3.263,3.2647,3.264,3.2639,3.2662,3.2664,3.2665,3.2674,3.2677,3.2643,3.2643,3.2643,0,3.2141,3.2192,3.2227,3.226,3.2286,3.2317,3.2347,3.2375,3.243,3.2447,3.245,3.2528,3.2559,3.2607,3.2613,3.263,3.264,3.2635,3.2661,3.2663,3.2665,3.2674,3.2677,3.2642,3.2642,3.2642,3.2642,0,3.2173,3.2208,3.2226,3.228,3.2308,3.2339,3.238,3.2403,3.2424,3.2452,3.2496,3.2535,3.2579,3.2592,3.2611,3.2644,3.2645,3.2653,3.2657,3.2665,3.2674,3.2678,3.264,3.2641,3.2641,3.2641,0,0,3.2157,3.2234,3.224,3.2266,3.2322,3.235,3.2383,3.2428,3.2449,3.2487,3.2517,3.2568,3.2578,3.2604,3.2627,3.2647,3.2664,3.2654,3.2656,3.2656,3.2705,3.2699,3.2702,3.2675,3.2676,3.2677,3.2702,0,3.2171,3.2234,3.2268,3.2316,3.235,3.2381,3.2411,3.2448,3.2477,3.251,3.2541,3.2577,3.2586,3.2603,3.2624,3.2657,3.2674,3.2656,3.2704,3.2706,3.2693,3.2707,3.27,3.2721,3.2705,3.2706,3.2706,0,3.2196,3.2235,3.2287,3.2342,3.2357,3.2383,3.2429,3.246,3.2504,3.2523,3.2555,3.2579,3.2616,3.2617,3.267,3.2657,3.2679,3.2699,3.27,3.2707,3.2707,3.2715,3.2729,3.2732,3.2712,3.2712,3.2711,0,3.2181,3.2247,3.2288,3.2309,3.2373,3.2391,3.2419,3.2462,3.2489,3.2528,3.2546,3.2589,3.2613,3.2646,3.2682,3.2679,3.2732,3.2735,3.275,3.2749,3.276,3.2759,3.2779,3.2772,3.2772,3.2772,3.2772,0,3.2194,3.2225,3.2283,3.2307,3.2344,3.2383,3.2418,3.2448,3.2487,3.2519,3.2548,3.2577,3.2622,3.2657,3.2684,3.2725,3.2735,3.2753,3.276,3.2751,3.2749,3.2766,3.2766,3.2773,3.2772,3.2772,3.2772,0,3.2184,3.2224,3.227,3.2328,3.2343,3.2368,3.2417,3.2443,3.2474,3.2514,3.2526,3.2574,3.2617,3.2656,3.2712,3.2731,3.2773,3.2781,3.2758,3.2763,3.2776,3.2774,3.2808,3.2816,3.2802,3.2802,3.2802,0,3.2189,3.2214,3.2276,3.23,3.2328,3.2365,3.2393,3.2434,3.2461,3.2515,3.2535,3.258,3.2619,3.2686,3.2726,3.277,3.278,3.2789,3.2787,3.2778,3.2783,3.2781,3.2785,3.2789,3.2789,3.2789,3.2789,0,3.2196,3.2216,3.2255,3.2302,3.2334,3.2373,3.2412,3.243,3.2478,3.2508,3.2553,3.2583,3.2643,3.2688,3.2737,3.2765,3.2786,3.279,3.2796,3.2787,3.2774,3.2783,3.2759,3.2788,3.2789,3.2789,3.2789,3.2789,3.2195,3.222,3.2268,3.2312,3.2346,3.2383,3.2411,3.2447,3.2485,3.2538,3.2559,3.2606,3.2652,3.272,3.2749,3.2786,3.279,3.2798,3.28,3.2802,3.2801,3.2767,3.2795,3.2795,3.2795,3.2795,3.2795,0,3.2205,3.2238,3.2278,3.2333,3.2368,3.2386,3.2431,3.2459,3.25,3.2541,3.258,3.2633,3.2678,3.2723,3.277,3.2792,3.2803,3.2803,3.2802,3.2809,3.2794,3.2785,3.2794,3.2794,3.2794,3.2794,3.2794,3.2794,3.2214,3.2258,3.2284,3.2345,3.2379,3.2426,3.245,3.2485,3.2519,3.2578,3.2616,3.2645,3.2689,3.274,3.2783,3.2795,3.2812,3.281,3.2824,3.281,3.281,3.2809,3.2801,3.2813,3.2813,3.2836,3.2837,3.2837]}]]